Home   Weather   Bilbao   Past weeks

Flag for Spain Past Weather in Bilbao, Spain — Yesterday and Last 2 Weeks

Now
61 °F

Sunny.


Feels Like: 61 °F
Forecast: 45 / 60 °F
Wind: 8 mph from North

Location: Bilbao / Sondica

Current Time: Dec 7, 2016 at 5:43:25 pm

Latest Report: Dec 7, 2016 at 5:00 pm


Visibility: 10 mi

Pressure: 30.36 "Hg

Humidity: 63%

Dew Point: 48 °F

Location of BilbaoLocation

Past Weather in Bilbao — Graph

°F

Bilbao Temperature Yesterday

Maximum temperature yesterday: 68 °F (at 2:30 pm)
Minimum temperature yesterday: 48 °F (at 4:30 am)
Average temperature yesterday: 55 °F

High & Low Weather Summary for the Past Weeks

 TemperatureHumidityPressure
High68 °F (Dec 5, 2:30 pm)100% (Nov 22, 6:00 pm)30.36 "Hg (Nov 22, 6:00 pm)
Low39 °F (Nov 25, 6:30 am)46% (Nov 27, 3:00 pm)29.62 "Hg (Nov 23, 8:30 pm)
Average53 °F77%30.00 "Hg
* Reported Nov 22 4:00 pm — Dec 7 4:30 pm, Bilbao, Weather by CustomWeather, © 2016

Note: Actual official high and low records may vary slightly from our data, if they occured in-between our weather recording intervals... More about our weather records

Advertising

Bilbao Weather History for the Previous 24 Hours

Scroll right to see more
 ConditionsComfort  
Time TempWeatherWind HumidityBarometerVisibility
4:30 pm
Wed, Dec 7
63 °FPassing clouds.9 mph59%30.36 "HgN/A
3:30 pm64 °FPassing clouds.7 mph56%30.36 "HgN/A
3:00 pm64 °FPassing clouds.7 mph56%30.36 "HgN/A
2:30 pm63 °FPassing clouds.5 mph59%30.36 "HgN/A
2:00 pm63 °FPassing clouds.5 mph59%30.36 "HgN/A
1:30 pm63 °FPassing clouds.5 mph59%30.36 "HgN/A
1:00 pm61 °FPassing clouds.2 mph59%30.36 "HgN/A
12:30 pm61 °FPassing clouds.6 mph63%30.36 "HgN/A
12:00 pm59 °FSunny.2 mph68%30.36 "Hg10 mi
11:30 am57 °FSunny.No wind72%30.36 "Hg10 mi
11:00 am54 °FSunny.1 mph77%30.36 "Hg10 mi
10:30 am50 °FSunny.1 mph82%30.36 "Hg10 mi
10:00 am46 °FPassing clouds.3 mph93%30.36 "HgN/A
9:30 am46 °FPassing clouds.3 mph87%30.36 "HgN/A
9:00 am45 °FPassing clouds.3 mph93%30.33 "HgN/A
8:30 am45 °FPassing clouds.5 mph93%30.33 "HgN/A
8:00 am45 °FPassing clouds.3 mph93%30.33 "HgN/A
7:30 am46 °FPassing clouds.6 mph87%30.33 "HgN/A
7:00 am46 °FClear.2 mph87%30.33 "Hg10 mi
6:30 am46 °FClear.1 mph87%30.33 "Hg10 mi
6:00 am46 °FClear.2 mph87%30.33 "Hg10 mi
5:30 am46 °FClear.5 mph87%30.33 "Hg10 mi
5:00 am46 °FClear.2 mph87%30.33 "Hg10 mi
4:30 am46 °FFog.2 mph93%30.33 "Hg3 mi
4:00 am46 °FFog.2 mph93%30.33 "Hg3 mi
3:30 am46 °FFog.1 mph93%30.33 "Hg3 mi
3:00 am46 °FFog.3 mph93%30.33 "Hg2 mi
2:30 am48 °FFog.3 mph87%30.33 "Hg2 mi
2:00 am48 °FFog.2 mph87%30.36 "Hg3 mi
1:30 am48 °FFog.3 mph94%30.33 "Hg2 mi
1:00 am48 °FFog.5 mph94%30.33 "Hg2 mi
12:30 am48 °FFog.3 mph94%30.36 "Hg2 mi
12:00 am48 °FFog.1 mph94%30.36 "Hg2 mi
11:30 pm
Tue, Dec 6
50 °FClear.2 mph88%30.36 "Hg10 mi
11:00 pm50 °FClear.1 mph94%30.36 "Hg10 mi
10:30 pm52 °FClear.2 mph88%30.36 "Hg10 mi
10:00 pm52 °FClear.2 mph88%30.36 "Hg10 mi
9:30 pm52 °FPassing clouds.5 mph88%30.36 "HgN/A
9:00 pm52 °FClear.1 mph94%30.36 "Hg10 mi
8:30 pm54 °FClear.2 mph88%30.33 "Hg10 mi
8:00 pm54 °FClear.5 mph88%30.33 "Hg10 mi
7:00 pm54 °FClear.1 mph88%30.33 "Hg10 mi
6:30 pm57 °FClear.2 mph77%30.33 "Hg10 mi
6:00 pm59 °FPassing clouds.3 mph77%30.30 "HgN/A
5:30 pm61 °FSunny.3 mph72%30.30 "Hg10 mi
5:00 pm63 °FSunny.1 mph68%30.30 "Hg10 mi
Weather by CustomWeather, © 2016

See weather overviewHow to use our weather pages